Weather History for Marathon, FL

Change the Weather History Date:

Tuesday, September 4, 2012

  Actual Average Record
Temperature  
Mean Temperature 83 °F 84 °F  
Max Temperature 90 °F 90 °F 95 °F (2002)
Min Temperature 75 °F 79 °F 73 °F (2006)
Degree Days  
Heating Degree Days 0 0  
Month to date heating degree days 0 0  
Since 1 July heating degree days 0 0  
Cooling Degree Days 18 19  
Month to date cooling degree days 81 79  
Year to date cooling degree days 3740 3465  
Growing Degree Days 32 (Base 50)    
Moisture  
Dew Point 75 °F    
Average Humidity 78    
Maximum Humidity 91    
Minimum Humidity 64    
Precipitation  
Precipitation 0.55 in 0.24 in 2.15 in (2010)
Month to date precipitation 0.55 1.01  
Year to date precipitation 35.91 29.83  
Snow  
Snow 0.00 in - - ()
Month to date snowfall 0.0  
Since 1 July snowfall 0.0  
Since 1 September snowfall 0.0  
Snow Depth 0.00 in    
Sea Level Pressure  
Sea Level Pressure 30.01 in    
Wind  
Wind Speed 5 mph (SE)    
Max Wind Speed 16 mph    
Max Gust Speed 25 mph    
Visibility 8 miles    
Events Rain    
T = Trace of Precipitation, MM = Missing Value Source: NWS Daily Summary

Daily Weather History Graph

Daily Weather History Graph

Search for Another Location

Airport:

Trip Planner

Search our weather history database for the weather conditions in past years. The results will help you decide how hot, cold, wet, or windy it might be!

Date:

Astronomy

Sep. 04, 2012 Rise Set
Actual Time 7:06 AM EDT 7:39 PM EDT
Civil Twilight 6:43 AM EDT 8:02 PM EDT
Nautical Twilight 6:16 AM EDT 8:29 PM EDT
Astronomical Twilight 5:49 AM EDT 8:56 PM EDT
Moon 10:06 PM EDT (9/4) 10:38 AM EDT (9/4)
Length of Visible Light 13h 18m
Length of Day
12h 32m
Waning Gibbous, 84% of the Moon is Illuminated
Sep 4
Waning Gibbous
Sep 8
Last Quarter
Sep 15
New
Sep 22
First Quarter
Sep 29
Full

Hourly Weather History & Observations

Time (EDT) Temp. Heat Index Dew Point Humidity Pressure Visibility Wind Dir Wind Speed Gust Speed Precip Events Conditions
12:53 AM 82.9 °F 90.8 °F 75.9 °F 79% 30.02 in 10.0 mi ESE 4.6 mph - N/A   Clear
1:53 AM 82.9 °F 90.8 °F 75.9 °F 79% 30.01 in 10.0 mi SSE 4.6 mph - N/A   Scattered Clouds
2:53 AM 82.9 °F 90.8 °F 75.9 °F 79% 30.01 in 10.0 mi Variable 4.6 mph - N/A   Scattered Clouds
3:53 AM 82.9 °F 90.8 °F 75.9 °F 79% 30.00 in 10.0 mi SE 8.1 mph - N/A   Partly Cloudy
4:53 AM 82.9 °F 90.8 °F 75.9 °F 79% 30.00 in 10.0 mi ESE 5.8 mph - N/A   Partly Cloudy
5:43 AM 80.6 °F 86.2 °F 75.2 °F 84% 29.99 in 2.5 mi ESE 11.5 mph 23.0 mph 0.09 in Rain Heavy Rain
5:50 AM 77.0 °F - 75.2 °F 94% 29.99 in 1.2 mi East 12.7 mph 21.9 mph 0.23 in Rain Heavy Rain
5:53 AM 77.0 °F - 75.0 °F 94% 29.99 in 1.2 mi East 13.8 mph 20.7 mph 0.27 in Rain Heavy Rain
6:09 AM 75.2 °F - 75.2 °F 100% 30.00 in 3.0 mi East 4.6 mph - 0.13 in Rain Rain
6:53 AM 78.1 °F - 75.9 °F 93% 30.01 in 10.0 mi Calm Calm - 0.16 in Rain Light Rain
7:53 AM 80.1 °F 84.5 °F 73.9 °F 81% 30.01 in 10.0 mi ESE 4.6 mph - 0.00 in   Partly Cloudy
8:53 AM 84.0 °F 94.8 °F 78.1 °F 82% 30.02 in 10.0 mi ESE 6.9 mph - N/A   Scattered Clouds
9:22 AM 77.0 °F - 73.4 °F 89% 30.04 in 1.8 mi SSW 12.7 mph 25.3 mph 0.04 in Rain Rain
9:30 AM 75.2 °F - 73.4 °F 94% 30.03 in 1.0 mi SSW 6.9 mph 18.4 mph 0.10 in Rain Heavy Rain
9:41 AM 75.2 °F - 73.4 °F 94% 30.04 in 3.0 mi SE 6.9 mph - 0.11 in Rain Light Rain
9:53 AM 79.0 °F - 75.0 °F 88% 30.04 in 10.0 mi South 8.1 mph 16.1 mph 0.12 in Rain Light Rain
10:53 AM 84.9 °F 94.1 °F 75.9 °F 74% 30.04 in 10.0 mi SSE 6.9 mph - 0.00 in   Clear
11:53 AM 86.0 °F 95.1 °F 75.0 °F 70% 30.04 in 10.0 mi SSE 5.8 mph - N/A   Clear
12:53 PM 88.0 °F 98.5 °F 75.9 °F 67% 30.03 in 10.0 mi SSE 6.9 mph - N/A   Clear
1:38 PM 86.0 °F 95.1 °F 75.2 °F 70% 30.01 in 10.0 mi SSE 9.2 mph - N/A   Mostly Cloudy
1:53 PM 89.1 °F 100.2 °F 75.9 °F 65% 30.01 in 10.0 mi Variable 5.8 mph - N/A   Scattered Clouds
2:53 PM 89.1 °F 100.2 °F 75.9 °F 65% 29.99 in 10.0 mi Variable 6.9 mph - N/A   Clear
3:53 PM 88.0 °F 98.5 °F 75.9 °F 67% 29.97 in 10.0 mi Variable 4.6 mph - N/A   Scattered Clouds
4:53 PM 87.1 °F 96.3 °F 75.0 °F 67% 29.96 in 10.0 mi Variable 4.6 mph - N/A   Clear
5:53 PM 86.0 °F 93.8 °F 73.9 °F 67% 29.96 in 10.0 mi SSE 4.6 mph - N/A   Clear
6:53 PM 84.9 °F 92.1 °F 73.9 °F 69% 29.96 in 10.0 mi Calm Calm - N/A   Clear
7:53 PM 82.9 °F 89.4 °F 73.9 °F 74% 29.98 in 10.0 mi Calm Calm - N/A   Clear
8:53 PM 84.0 °F 91.2 °F 73.9 °F 72% 30.00 in 10.0 mi Calm Calm - N/A   Clear
9:53 PM 84.0 °F 91.2 °F 73.9 °F 72% 30.01 in 10.0 mi ESE 4.6 mph - N/A   Clear
10:53 PM 82.9 °F 89.4 °F 73.9 °F 74% 30.01 in 10.0 mi Calm Calm - N/A   Clear
11:53 PM 82.9 °F 90.2 °F 75.0 °F 77% 30.00 in 10.0 mi SSE 3.5 mph - N/A   Scattered Clouds